Voltar ao catálogo

STARLINK-36309

AtivoComunicaçõesVLEO
NORAD 68325·PAYLOAD·🇺🇸 United States

Lançado Mar 22, 2026 de Cape Canaveral Space Force Station

Loading…

Próximas Passagens (próximas 24 horas)

TLE

AtualizadoSource: CelesTrak SupGP

Época: Sep 14, 2026, 21:34 UTC

1 68325C 26059E   26257.89909722 -.00017461  00000+0 -51542-3 0  2571
2 68325  53.1574 182.2283 0001263  93.7443 328.8808 15.34428414    13

Acompanhe STARLINK-36309 em tempo real com AllMySat

Download on the App Store